TimeCDT,TemperatureF,Dew PointF,Humidity,Sea Level PressureIn,VisibilityMPH,Wind Direction,Wind SpeedMPH,Gust SpeedMPH,PrecipitationIn,Events,Conditions,WindDirDegrees,DateUTC
12:15 AM,32.0,32.0,100,30.47,2.5,North,8.1,-,N/A,Snow,Light Snow,360,2013-05-02 05:15:00
12:35 AM,32.0,32.0,100,30.47,0.8,North,9.2,-,0.01,Snow,Light Snow,360,2013-05-02 05:35:00
12:55 AM,32.0,32.0,100,30.49,0.5,North,5.8,-,0.03,Snow,Snow,360,2013-05-02 05:55:00
1:15 AM,32.0,32.0,100,30.49,0.5,North,8.1,-,0.02,Snow,Snow,350,2013-05-02 06:15:00
1:35 AM,32.0,32.0,100,30.48,0.8,North,5.8,-,0.03,Snow,Light Snow,360,2013-05-02 06:35:00
1:55 AM,32.0,32.0,100,30.50,0.5,North,8.1,-,0.05,Snow,Snow,350,2013-05-02 06:55:00
2:15 AM,32.0,32.0,100,30.50,0.5,North,10.4,-,0.01,Snow,Light Snow,360,2013-05-02 07:15:00
2:35 AM,32.0,32.0,100,30.49,0.5,North,6.9,-,0.03,Snow,Snow,350,2013-05-02 07:35:00
2:55 AM,32.0,32.0,100,30.48,0.2,North,10.4,-,0.05,Snow,Snow,360,2013-05-02 07:55:00
3:15 AM,32.0,32.0,100,30.47,0.8,North,6.9,-,N/A,Snow,Light Snow,360,2013-05-02 08:15:00
3:35 AM,32.0,32.0,100,30.48,0.8,NNW,4.6,-,0.01,Snow,Light Snow,340,2013-05-02 08:35:00
3:55 AM,32.0,32.0,100,30.49,0.5,NNW,3.5,-,0.03,Snow,Snow,330,2013-05-02 08:55:00
4:15 AM,32.0,32.0,100,30.49,0.5,North,8.1,-,0.02,Snow,Snow,350,2013-05-02 09:15:00
4:55 AM,32.0,30.2,93,30.48,0.5,North,8.1,-,0.01,Snow,Snow,350,2013-05-02 09:55:00
5:15 AM,32.0,30.2,93,30.48,0.5,North,10.4,-,0.01,Snow,Snow,360,2013-05-02 10:15:00
5:35 AM,32.0,30.2,93,30.47,0.2,North,8.1,-,0.03,Snow,Snow,350,2013-05-02 10:35:00
5:55 AM,32.0,30.2,93,30.49,0.2,North,6.9,-,0.05,Snow,Snow,350,2013-05-02 10:55:00
6:15 AM,32.0,30.2,93,30.50,0.2,North,6.9,-,0.03,Snow,Heavy Snow,350,2013-05-02 11:15:00
6:35 AM,30.2,30.2,100,30.49,0.2,North,6.9,-,0.06,Snow,Snow,350,2013-05-02 11:35:00
6:55 AM,30.2,30.2,100,30.49,0.2,North,6.9,-,0.01,Snow,Heavy Snow,350,2013-05-02 11:55:00
7:15 AM,30.2,30.2,100,30.49,0.2,North,8.1,-,0.03,Snow,Heavy Snow,350,2013-05-02 12:15:00
7:35 AM,-9999,-9999,N/A,30.49,-9999.0,North,8.1,-,N/A,,Unknown,350,2013-05-02 12:35:00
8:15 AM,30.2,30.2,100,30.51,0.8,NNW,5.8,-,N/A,Snow,Light Snow,330,2013-05-02 13:15:00
8:35 AM,30.2,28.4,93,30.51,0.8,NNW,6.9,-,N/A,Snow,Light Snow,330,2013-05-02 13:35:00
9:15 AM,32.0,30.2,93,30.52,0.5,NNW,8.1,-,N/A,Snow,Snow,340,2013-05-02 14:15:00
9:35 AM,30.2,28.4,93,30.50,0.8,NNW,8.1,-,N/A,Snow,Light Snow,340,2013-05-02 14:35:00
9:55 AM,32.0,30.2,93,30.50,0.8,NNW,8.1,-,N/A,Snow,Light Snow,340,2013-05-02 14:55:00
10:15 AM,32.0,30.2,93,30.50,1.5,NNW,8.1,-,N/A,Snow,Light Snow,340,2013-05-02 15:15:00
10:35 AM,32.0,30.2,93,30.50,0.5,North,6.9,-,0.01,Snow,Snow,350,2013-05-02 15:35:00
10:55 AM,32.0,30.2,93,30.50,0.5,NNW,9.2,-,0.02,Snow,Snow,340,2013-05-02 15:55:00
11:15 AM,32.0,30.2,93,30.51,0.5,North,8.1,-,0.01,Snow,Snow,350,2013-05-02 16:15:00
11:35 AM,32.0,30.2,93,30.50,1.0,NNW,9.2,-,0.01,Snow,Light Snow,340,2013-05-02 16:35:00
11:55 AM,32.0,30.2,93,30.49,1.2,North,12.7,20.7,0.01,Snow,Light Snow,350,2013-05-02 16:55:00
12:15 PM,33.8,30.2,87,30.49,3.0,North,9.2,-,N/A,Snow,Light Snow,350,2013-05-02 17:15:00
12:35 PM,33.8,30.2,87,30.49,5.0,NNW,11.5,16.1,N/A,,Overcast,340,2013-05-02 17:35:00
12:55 PM,33.8,30.2,87,30.49,10.0,North,11.5,18.4,N/A,,Overcast,350,2013-05-02 17:55:00
1:15 PM,33.8,30.2,87,30.48,5.0,North,13.8,-,N/A,,Haze,350,2013-05-02 18:15:00
1:35 PM,33.8,30.2,87,30.49,4.0,North,9.2,18.4,N/A,,Haze,350,2013-05-02 18:35:00
1:55 PM,33.8,30.2,87,30.48,10.0,North,9.2,-,N/A,,Overcast,350,2013-05-02 18:55:00
2:15 PM,33.8,28.4,81,30.48,10.0,North,10.4,20.7,N/A,,Overcast,360,2013-05-02 19:15:00
2:35 PM,33.8,28.4,81,30.49,5.0,North,10.4,19.6,N/A,Snow,Light Snow,360,2013-05-02 19:35:00
2:55 PM,33.8,28.4,81,30.49,5.0,North,11.5,-,N/A,Snow,Light Snow,360,2013-05-02 19:55:00
3:15 PM,33.8,30.2,87,30.48,3.0,North,15.0,-,N/A,Snow,Light Snow,10,2013-05-02 20:15:00
3:35 PM,33.8,30.2,87,30.47,3.0,North,13.8,17.3,N/A,Snow,Light Snow,360,2013-05-02 20:35:00
4:15 PM,32.0,30.2,93,30.46,4.0,NNE,12.7,19.6,N/A,Snow,Light Snow,20,2013-05-02 21:15:00
4:35 PM,32.0,30.2,93,30.46,3.0,North,12.7,-,N/A,Snow,Light Snow,10,2013-05-02 21:35:00
4:55 PM,32.0,30.2,93,30.46,4.0,North,13.8,-,N/A,Snow,Light Snow,10,2013-05-02 21:55:00
5:15 PM,32.0,30.2,93,30.46,7.0,North,11.5,-,N/A,Snow,Light Snow,360,2013-05-02 22:15:00
5:35 PM,32.0,30.2,93,30.45,7.0,North,9.2,-,N/A,Snow,Light Snow,10,2013-05-02 22:35:00
5:55 PM,32.0,30.2,93,30.45,7.0,NNE,11.5,-,N/A,,Overcast,20,2013-05-02 22:55:00
6:15 PM,32.0,30.2,93,30.45,10.0,North,11.5,-,N/A,,Overcast,10,2013-05-02 23:15:00
6:35 PM,32.0,30.2,93,30.45,10.0,North,11.5,-,N/A,,Overcast,10,2013-05-02 23:35:00
6:55 PM,32.0,30.2,93,30.45,10.0,North,11.5,-,N/A,,Overcast,10,2013-05-02 23:55:00
7:15 PM,32.0,30.2,93,30.44,10.0,NNE,12.7,-,N/A,,Overcast,20,2013-05-03 00:15:00
7:35 PM,32.0,30.2,93,30.44,10.0,NNE,10.4,-,N/A,,Overcast,20,2013-05-03 00:35:00
8:15 PM,32.0,28.4,87,30.44,10.0,North,15.0,-,N/A,,Overcast,360,2013-05-03 01:15:00
8:35 PM,32.0,28.4,87,30.44,10.0,North,13.8,-,N/A,,Overcast,10,2013-05-03 01:35:00
8:55 PM,32.0,28.4,87,30.44,10.0,North,10.4,-,N/A,,Overcast,360,2013-05-03 01:55:00
9:15 PM,32.0,28.4,87,30.45,10.0,North,10.4,-,N/A,,Overcast,360,2013-05-03 02:15:00
9:35 PM,32.0,28.4,87,30.44,10.0,North,12.7,-,N/A,,Overcast,10,2013-05-03 02:35:00
9:55 PM,32.0,28.4,87,30.44,10.0,North,11.5,-,N/A,,Overcast,360,2013-05-03 02:55:00
10:15 PM,32.0,28.4,87,30.44,10.0,North,9.2,-,N/A,,Overcast,360,2013-05-03 03:15:00
10:35 PM,32.0,28.4,87,30.44,10.0,North,9.2,-,N/A,Snow,Light Snow,360,2013-05-03 03:35:00
10:55 PM,32.0,28.4,87,30.43,10.0,North,9.2,-,N/A,,Overcast,350,2013-05-03 03:55:00
11:15 PM,32.0,28.4,87,30.44,4.0,North,9.2,-,N/A,Snow,Light Snow,350,2013-05-03 04:15:00
11:35 PM,32.0,28.4,87,30.42,4.0,North,9.2,-,N/A,Snow,Light Snow,350,2013-05-03 04:35:00
11:55 PM,32.0,28.4,87,30.41,7.0,North,10.4,-,N/A,,Overcast,360,2013-05-03 04:55:00